Content
SEND FEEDBACK

Daily
Averages
Monthly
Summary
United States of America

RAPID CITY, SOUTH DAKOTA


Home > North America > United States > South Dakota
Elevation: 3162 feet     Latitude: 44 03N     Longitude: 103 04W

WEATHER
 
SELECT A DAY
Number of Records: 204,958;   Date Range: 1/1/95 - 12/17/14
 
SHARE

PRINT THIS DATA

[ ← Previous Day ]
WEATHER ALMANAC - JULY 18, 2013
[ Next Day → ]
[ °C ]   °F
Weather ElementAverageHighLow
Temperature81 °F93 °F (10:52 am)66.9 °F (5:52 am)
Dewpoint58.2 °F64.4 °F (4:31 pm)51.1 °F (8:52 pm)
Humidity47.4 %70 % (5:52 am)29 % (10:52 am)
Barometer29.91 in29.99 in (3:03 pm)29.87 in (7:52 pm)
Wind Speed10.2 mph23 mph (11:52 am)
Wind Gust32.2 mph (11:52 am)
Weather ElementAverage
Visibility10 mi
Wind DirectionWSW (261.2 °)

Weather ElementTotal
Precipitation---
Cooling Degree Days15 (Base 65)
Growing Degree Days30 (Base 50)
Averaged from 25 records on July 18, 2013
WEATHER CONDITIONS BREAKOUT
WIND DIRECTION BREAKOUT
WEATHER BY HOUR - JULY 18, 2013
[ °C ]   °F
Local TimeTemperatureDewpointHumidityBarometerVisibilityWind DirectionWind SpeedGust SpeedPrecipitationEventsConditions
1:52 AM73.0 °F57.9 °F59 %29.93 in10.0 miSouth (170°)6.9 mphClear
2:52 AM69.1 °F57.9 °F68 %29.93 in10.0 miSSE (150°)8.1 mphClear
3:52 AM70.0 °F57.0 °F63 %29.91 in10.0 miSSE (160°)10.4 mphClear
4:52 AM69.1 °F57.0 °F65 %29.89 in10.0 miSouth (170°)5.8 mphClear
5:52 AM66.9 °F57.0 °F70 %29.90 in10.0 miSSE (150°)4.6 mphClear
6:52 AM72.0 °F57.9 °F61 %29.90 in10.0 miCalmClear
7:52 AM75.9 °F57.9 °F54 %29.91 in10.0 miCalmClear
8:52 AM84.0 °F55.9 °F38 %29.91 in10.0 miNorth (360°)9.2 mphClear
9:52 AM89.1 °F55.9 °F32 %29.90 in10.0 miNorth (350°)11.5 mphClear
10:52 AM93.0 °F55.9 °F29 %29.89 in10.0 miNorth (350°)18.4 mph24.2 mphClear
11:52 AM91.0 °F62.1 °F38 %29.90 in10.0 miNNW (330°)23.0 mph32.2 mphClear
12:52 PM93.0 °F62.1 °F36 %29.88 in10.0 miNNW (340°)21.9 mph28.8 mphClear
1:52 PM89.1 °F59.0 °F36 %29.88 in10.0 miNorth (350°)13.8 mph27.6 mphClear
2:52 PM90.0 °F57.0 °F33 %29.89 in10.0 miNorth (350°)16.1 mph24.2 mphClear
3:03 PM89.6 °F57.2 °F33 %29.99 in10.0 miNNW (330°)13.8 mphThunderstormClear
3:52 PM80.1 °F62.1 °F54 %29.92 in10.0 miWest (260°)10.4 mphThunderstormThunderstorm
4:31 PM80.6 °F64.4 °F58 %29.99 in10.0 miWest (260°)8.1 mph0.00 inPartly Cloudy
4:52 PM84.0 °F63.0 °F49 %29.91 in10.0 miWest (260°)9.2 mph0.00 inClear
5:52 PM89.1 °F61.0 °F39 %29.89 in10.0 miWest (260°)9.2 mphClear
6:52 PM88.0 °F62.1 °F42 %29.88 in10.0 miWSW (250°)6.9 mphClear
7:52 PM84.9 °F62.1 °F46 %29.87 in10.0 miWNW (300°)4.6 mphClear
8:52 PM81.0 °F51.1 °F35 %29.90 in10.0 miNNW (330°)10.4 mphClear
9:52 PM79.0 °F53.1 °F40 %29.94 in10.0 miNorth (350°)12.7 mphClear
10:52 PM72.0 °F54.0 °F53 %29.96 in10.0 miNorth (350°)10.4 mphClear
11:52 PM71.1 °F54.0 °F55 %29.97 in10.0 miNorth (350°)9.2 mphClear
Hourly data recorded from KRAP, located miles away from Rapid City, South Dakota







STORIES FROM OUR PARTNERS